When you browse on this site, cookies collect data to enhance your experience and personalize the content and advertising you see.
Visit our Privacy Policy to learn more. By continuing to use the site, you agree to this use of cookies and data.
EN

Hourly Weather Kijowice

Today, 4 July, Saturday

Time Temperature Precipitation Wind Pressure Humidity
00:00 +16°C° 0 mm 1 mps 750 mmHg 80%
01:00 +15°C° 0 mm 2 mps 750 mmHg 81%
02:00 +15°C° 0 mm 2 mps 750 mmHg 81%
03:00 +15°C° 0 mm 1 mps 750 mmHg 81%
04:00 +14°C° 0 mm 1 mps 750 mmHg 82%
05:00 +16°C° 0 mm 1 mps 750 mmHg 78%
06:00 +17°C° 0 mm 2 mps 750 mmHg 75%
07:00 +19°C° 0 mm 2 mps 750 mmHg 71%
08:00 +20°C° 0 mm 2 mps 750 mmHg 67%
09:00 +23°C° 0 mm 2 mps 750 mmHg 62%
10:00 +24°C° 0 mm 2 mps 750 mmHg 57%
11:00 +25°C° 0 mm 3 mps 750 mmHg 56%
12:00 +25°C° 0 mm 3 mps 750 mmHg 54%
13:00 +26°C° 0 mm 3 mps 749 mmHg 52%
14:00 +26°C° 0 mm 3 mps 749 mmHg 53%
15:00 +26°C° 0 mm 3 mps 749 mmHg 55%
16:00 +26°C° 0 mm 3 mps 748 mmHg 56%
17:00 +25°C° 0 mm 3 mps 748 mmHg 61%
18:00 +24°C° 0 mm 2 mps 748 mmHg 66%
19:00 +23°C° 0 mm 2 mps 748 mmHg 72%
20:00 +21°C° 0 mm 2 mps 748 mmHg 74%
21:00 +20°C° 0 mm 2 mps 748 mmHg 76%
22:00 +19°C° 0 mm 2 mps 749 mmHg 79%
23:00 +18°C° 0 mm 2 mps 749 mmHg 80%

Tomorrow, 5 July, Sunday

Time Temperature Precipitation Wind Pressure Humidity
00:00 +18°C° 0 mm 2 mps 749 mmHg 80%
01:00 +17°C° 0 mm 2 mps 749 mmHg 81%
02:00 +17°C° 0 mm 2 mps 748 mmHg 81%
03:00 +17°C° 0 mm 2 mps 748 mmHg 81%
04:00 +17°C° 0 mm 2 mps 748 mmHg 80%
05:00 +19°C° 0 mm 2 mps 748 mmHg 78%
06:00 +20°C° 0 mm 2 mps 748 mmHg 76%
07:00 +21°C° 0 mm 3 mps 748 mmHg 73%
08:00 +22°C° 0 mm 3 mps 748 mmHg 69%
09:00 +25°C° 0 mm 3 mps 748 mmHg 65%
10:00 +26°C° 0 mm 4 mps 748 mmHg 61%
11:00 +27°C° 0 mm 4 mps 748 mmHg 61%
12:00 +27°C° 0 mm 4 mps 747 mmHg 61%
13:00 +28°C° 0 mm 5 mps 747 mmHg 61%
14:00 +27°C° 0.2 mm 4 mps 747 mmHg 62%
15:00 +27°C° 0.2 mm 4 mps 746 mmHg 64%
16:00 +27°C° 0.2 mm 4 mps 746 mmHg 65%
17:00 +26°C° 0.1 mm 4 mps 746 mmHg 70%
18:00 +25°C° 0.1 mm 3 mps 746 mmHg 74%
19:00 +25°C° 0.1 mm 3 mps 746 mmHg 79%
20:00 +22°C° 0 mm 3 mps 746 mmHg 81%
21:00 +21°C° 0 mm 3 mps 746 mmHg 84%
22:00 +20°C° 0 mm 3 mps 746 mmHg 86%
23:00 +20°C° 0 mm 3 mps 746 mmHg 87%

Day after tomorrow, 6 July, Monday

Time Temperature Precipitation Wind Pressure Humidity
00:00 +19°C° 0 mm 3 mps 745 mmHg 87%
01:00 +19°C° 0 mm 3 mps 745 mmHg 88%
02:00 +18°C° 0 mm 3 mps 745 mmHg 89%
03:00 +18°C° 0 mm 3 mps 745 mmHg 90%
04:00 +18°C° 0 mm 3 mps 744 mmHg 91%
05:00 +19°C° 0 mm 4 mps 744 mmHg 87%
06:00 +20°C° 0 mm 4 mps 744 mmHg 82%
07:00 +21°C° 0 mm 4 mps 744 mmHg 78%
08:00 +22°C° 0.3 mm 4 mps 744 mmHg 78%
09:00 +22°C° 0.3 mm 5 mps 744 mmHg 77%
10:00 +22°C° 0.3 mm 5 mps 744 mmHg 77%
11:00 +21°C° 0.2 mm 5 mps 744 mmHg 73%
12:00 +20°C° 0.2 mm 5 mps 744 mmHg 68%
13:00 +19°C° 0.2 mm 6 mps 744 mmHg 64%
14:00 +21°C° 0 mm 6 mps 744 mmHg 61%
15:00 +22°C° 0 mm 6 mps 744 mmHg 58%
16:00 +23°C° 0 mm 6 mps 744 mmHg 55%
17:00 +22°C° 0 mm 6 mps 745 mmHg 58%
18:00 +20°C° 0 mm 5 mps 745 mmHg 61%
19:00 +19°C° 0 mm 5 mps 745 mmHg 64%
20:00 +18°C° 0 mm 4 mps 746 mmHg 65%
21:00 +16°C° 0 mm 3 mps 746 mmHg 66%
22:00 +14°C° 0 mm 3 mps 747 mmHg 67%
23:00 +14°C° 0 mm 3 mps 747 mmHg 69%

7 July, Tuesday

Time Temperature Precipitation Wind Pressure Humidity
00:00 +13°C° 0 mm 4 mps 748 mmHg 71%
01:00 +13°C° 0 mm 4 mps 748 mmHg 73%
02:00 +12°C° 0 mm 4 mps 748 mmHg 76%
03:00 +12°C° 0 mm 4 mps 749 mmHg 80%
04:00 +11°C° 0 mm 4 mps 749 mmHg 83%
05:00 +12°C° 0 mm 5 mps 749 mmHg 81%
06:00 +13°C° 0 mm 5 mps 750 mmHg 79%
07:00 +14°C° 0 mm 6 mps 750 mmHg 77%
08:00 +15°C° 0 mm 6 mps 750 mmHg 72%
09:00 +16°C° 0 mm 6 mps 750 mmHg 68%
10:00 +17°C° 0 mm 6 mps 750 mmHg 63%
11:00 +19°C° 0.1 mm 6 mps 750 mmHg 60%
12:00 +19°C° 0.1 mm 6 mps 750 mmHg 57%
13:00 +20°C° 0.1 mm 5 mps 750 mmHg 55%
14:00 +20°C° 0.1 mm 5 mps 750 mmHg 55%
15:00 +20°C° 0.1 mm 5 mps 750 mmHg 55%
16:00 +20°C° 0.1 mm 4 mps 750 mmHg 55%
17:00 +19°C° 0.1 mm 3 mps 750 mmHg 60%
18:00 +18°C° 0.1 mm 2 mps 750 mmHg 65%
19:00 +18°C° 0.1 mm 2 mps 750 mmHg 70%
20:00 +16°C° 0 mm 2 mps 750 mmHg 73%
21:00 +15°C° 0 mm 2 mps 750 mmHg 75%
22:00 +14°C° 0 mm 2 mps 750 mmHg 77%
23:00 +13°C° 0 mm 2 mps 750 mmHg 80%

8 July, Wednesday

Time Temperature Precipitation Wind Pressure Humidity
00:00 +13°C° 0 mm 2 mps 750 mmHg 82%
01:00 +12°C° 0 mm 2 mps 750 mmHg 84%
02:00 +12°C° 0 mm 2 mps 750 mmHg 85%
03:00 +12°C° 0 mm 2 mps 750 mmHg 85%
04:00 +10°C° 0 mm 2 mps 750 mmHg 86%
05:00 +12°C° 0 mm 3 mps 751 mmHg 81%
06:00 +14°C° 0 mm 3 mps 751 mmHg 77%
07:00 +16°C° 0 mm 3 mps 751 mmHg 72%
08:00 +17°C° 0.1 mm 4 mps 751 mmHg 69%
09:00 +18°C° 0.1 mm 4 mps 751 mmHg 67%
10:00 +19°C° 0.1 mm 5 mps 751 mmHg 64%
11:00 +20°C° 0.2 mm 5 mps 751 mmHg 61%
12:00 +20°C° 0.2 mm 5 mps 751 mmHg 58%
13:00 +21°C° 0.2 mm 5 mps 751 mmHg 55%
14:00 +21°C° 0 mm 4 mps 751 mmHg 54%
15:00 +21°C° 0 mm 4 mps 751 mmHg 53%
16:00 +22°C° 0 mm 4 mps 751 mmHg 52%
17:00 +21°C° 0 mm 3 mps 751 mmHg 57%
18:00 +20°C° 0 mm 2 mps 751 mmHg 61%
19:00 +20°C° 0 mm 1 mps 751 mmHg 66%
20:00 +18°C° 0 mm 1 mps 751 mmHg 68%
21:00 +16°C° 0 mm 1 mps 751 mmHg 70%
22:00 +15°C° 0 mm 1 mps 751 mmHg 71%
23:00 +14°C° 0 mm 2 mps 751 mmHg 73%

9 July, Thursday

Time Temperature Precipitation Wind Pressure Humidity
00:00 +14°C° 0 mm 2 mps 751 mmHg 76%
01:00 +14°C° 0 mm 2 mps 751 mmHg 78%
02:00 +13°C° 0 mm 2 mps 751 mmHg 81%
03:00 +13°C° 0 mm 2 mps 751 mmHg 84%
04:00 +13°C° 0 mm 2 mps 750 mmHg 88%
05:00 +15°C° 0 mm 2 mps 750 mmHg 82%
06:00 +16°C° 0 mm 3 mps 750 mmHg 77%
07:00 +18°C° 0 mm 3 mps 750 mmHg 71%
08:00 +20°C° 0 mm 3 mps 750 mmHg 66%
09:00 +22°C° 0 mm 4 mps 750 mmHg 60%
10:00 +25°C° 0 mm 4 mps 750 mmHg 55%
11:00 +25°C° 0 mm 5 mps 749 mmHg 53%
12:00 +26°C° 0 mm 5 mps 749 mmHg 52%
13:00 +27°C° 0 mm 5 mps 749 mmHg 50%
14:00 +27°C° 0 mm 5 mps 748 mmHg 52%
15:00 +27°C° 0 mm 5 mps 748 mmHg 53%
16:00 +27°C° 0 mm 4 mps 748 mmHg 54%
17:00 +25°C° 0.1 mm 4 mps 748 mmHg 61%
18:00 +23°C° 0.1 mm 4 mps 748 mmHg 68%
19:00 +21°C° 0.1 mm 3 mps 748 mmHg 74%
20:00 +20°C° 0 mm 3 mps 749 mmHg 79%
21:00 +18°C° 0 mm 3 mps 749 mmHg 84%
22:00 +17°C° 0 mm 3 mps 749 mmHg 88%
23:00 +17°C° 0 mm 3 mps 749 mmHg 89%
Show more